Location: Hungerford
(51.4167°N, 1.5167°W)
Time: 22:30:19
(UTC+00:00)

Cosmos 1544 - Pass Details

Date: 18 September 2020
Orbit: 471 x 491 km, 82.5° (Epoch: 20 October)

Event Time Altitude Azimuth Distance (km) Brightness Sun altitude
Rises 18:55:32 0° 195° (SSW) 2,555 6.8 -7.5°
Reaches altitude 10° 18:57:39 10° 198° (SSW) 1,677 5.9 -7.8°
Maximum altitude 19:01:18 68° 282° (WNW) 532 3.5 -8.3°
Drops below altitude 10° 19:04:58 10° 6° (N) 1,681 5.9 -8.9°
Sets 19:07:05 0° 9° (N) 2,563 6.8 -9.2°
